GW4068 Weather Reports


time (UTC)temp
C
wind
direction
speed
KPH
gust
KPH
rain 1hr
cm
rain 24hr
cm
rain mn
cm
humidity
%
barometer
mb
20260506140504 13 108 0.0 1.6 0.08 0.74 0.74 92 1007.5
20260506140006 13 108 0.0 4.8 0.10 0.74 0.74 92 1007.6
20260506135504 13 108 0.0 4.8 0.13 0.74 0.74 92 1007.6
20260506135008 13 96 0.0 3.2 0.15 0.74 0.74 92 1007.7
20260506134505 13 182 1.6 3.2 0.15 0.71 0.71 92 1007.7
20260506134007 13 207 0.0 3.2 0.18 0.71 0.71 92 1007.7
20260506133505 13 207 1.6 3.2 0.20 0.71 0.71 92 1007.7
20260506133007 13 198 0.0 1.6 0.23 0.71 0.71 92 1007.8
20260506132505 13 213 0.0 1.6 0.23 0.71 0.71 92 1007.8
20260506132007 13 214 0.0 1.6 0.25 0.71 0.71 92 1007.9
20260506131515 13 215 0.0 1.6 0.28 0.71 0.71 92 1007.8
20260506131007 13 169 0.0 1.6 0.28 0.69 0.69 92 1007.7
20260506130509 13 160 0.0 1.6 0.28 0.66 0.66 92 1007.6
20260506130004 13 160 0.0 1.6 0.28 0.64 0.64 92 1007.7
20260506125502 13 160 0.0 1.6 0.25 0.61 0.61 92 1007.8
20260506125004 13 159 0.0 0.0 0.23 0.58 0.58 92 1007.8
20260506124504 13 159 0.0 1.6 0.23 0.56 0.56 92 1008.1
20260506124004 13 159 0.0 1.6 0.20 0.53 0.53 92 1008.3
20260506123504 13 153 0.0 1.6 0.20 0.51 0.51 92 1008.2
20260506123008 13 235 0.0 0.0 0.18 0.48 0.48 92 1008.5
20260506122505 13 235 0.0 0.0 0.18 0.48 0.48 92 1008.5
20260506122005 13 235 0.0 0.0 0.15 0.48 0.46 92 1008.4
20260506121509 13 235 0.0 0.0 0.13 0.48 0.43 92 1008.5
20260506121005 13 235 0.0 1.6 0.13 0.48 0.41 92 1008.5
20260506120504 13 235 0.0 1.6 0.10 0.48 0.38 92 1008.4
20260506120017 13 235 0.0 0.0 0.08 0.46 0.36 92 1008.3
20260506115510 13 235 0.0 0.0 0.10 0.46 0.36 92 1008.0
20260506115006 13 235 0.0 0.0 0.10 0.46 0.36 92 1007.8
20260506114509 13 235 0.0 0.0 0.10 0.43 0.33 91 1007.8
20260506114004 13 235 0.0 0.0 0.13 0.43 0.33 91 1007.9
20260506113503 13 235 0.0 0.0 0.10 0.41 0.30 91 1008.0
20260506113004 13 235 0.0 1.6 0.13 0.41 0.30 91 1007.9
20260506112503 13 235 0.0 1.6 0.13 0.41 0.30 91 1007.9
20260506112003 13 235 0.0 1.6 0.13 0.41 0.30 91 1007.9
20260506111507 13 235 0.0 1.6 0.15 0.41 0.30 91 1007.8
20260506111003 13 235 0.0 1.6 0.13 0.38 0.28 91 1007.9
20260506110507 13 235 0.0 0.0 0.15 0.38 0.28 91 1007.8
20260506110014 13 235 0.0 0.0 0.15 0.38 0.28 91 1007.8
20260506105506 13 235 0.0 1.6 0.15 0.36 0.25 91 1007.8
20260506105008 13 235 0.0 1.6 0.15 0.36 0.25 91 1007.7
20260506104527 13 235 0.0 1.6 0.13 0.33 0.23 91 1007.8
20260506104009 13 234 0.0 0.0 0.10 0.30 0.20 91 1007.8
20260506103507 13 234 0.0 0.0 0.13 0.30 0.20 91 1007.8
20260506103023 13 234 0.0 0.0 0.10 0.28 0.18 91 1007.8
20260506102503 13 235 0.0 0.0 0.10 0.28 0.18 91 1007.9
20260506102011 13 234 0.0 0.0 0.10 0.28 0.18 91 1007.9
20260506101503 13 234 0.0 0.0 0.08 0.25 0.15 91 1007.8
20260506101003 13 234 0.0 0.0 0.08 0.25 0.15 91 1007.8
20260506100504 13 234 0.0 0.0 0.08 0.23 0.13 90 1007.8
20260506100008 13 234 0.0 1.6 0.08 0.23 0.13 90 1007.8
20260506095505 13 234 0.0 1.6 0.05 0.20 0.10 90 1007.7
20260506095009 13 234 0.0 1.6 0.05 0.20 0.10 90 1007.7
20260506094512 13 234 0.0 1.6 0.05 0.20 0.10 90 1007.7
20260506094008 13 234 0.0 1.6 0.08 0.20 0.10 90 1007.6
20260506093510 13 234 0.0 1.6 0.05 0.18 0.08 90 1007.6
20260506093018 13 234 0.0 1.6 0.08 0.18 0.08 90 1007.5
20260506092507 13 234 0.0 1.6 0.08 0.18 0.08 89 1007.5
20260506092011 13 234 0.0 1.6 0.08 0.23 0.08 89 1007.5
20260506091524 13 234 0.0 0.0 0.08 0.23 0.08 89 1007.4
20260506091009 13 234 0.0 0.0 0.08 0.23 0.08 88 1007.3
20260506090503 13 234 0.0 0.0 0.05 0.20 0.05 88 1007.4
20260506090008 14 153 0.0 0.0 0.05 0.20 0.05 87 1007.4
20260506085504 14 153 0.0 1.6 0.05 0.20 0.05 86 1007.4
20260506085004 14 153 0.0 1.6 0.05 0.20 0.05 85 1007.4
20260506084528 14 324 0.0 0.0 0.05 0.20 0.05 83 1007.4
20260506084007 15 326 0.0 0.0 0.03 0.18 0.03 82 1007.4
20260506083507 15 326 0.0 0.0 0.03 0.18 0.03 82 1007.5
20260506083016 15 326 0.0 0.0 0.00 0.15 0.00 81 1007.6
20260506082513 15 323 0.0 0.0 0.00 0.15 0.00 82 1007.6
20260506082008 15 321 0.0 0.0 0.00 0.15 0.00 79 1007.5
20260506081520 15 296 0.0 0.0 0.00 0.15 0.00 79 1007.5
20260506081009 15 296 0.0 0.0 0.00 0.15 0.00 80 1007.4
20260506080510 15 296 0.0 0.0 0.00 0.15 0.00 78 1007.4
20260506073506 16 272 0.0 0.0 0.00 0.15 0.00 75 1007.5
20260506073009 16 326 0.0 0.0 0.00 0.15 0.00 75 1007.4
20260506072507 15 326 0.0 0.0 0.00 0.15 0.00 76 1007.4
20260506072010 15 326 0.0 0.0 0.00 0.15 0.00 78 1007.4
20260506071519 14 326 0.0 1.6 0.00 0.15 0.00 81 1007.3
20260506071012 14 326 0.0 1.6 0.00 0.15 0.00 84 1007.4
20260506070509 14 204 0.0 1.6 0.00 0.15 0.00 84 1007.5
20260506062505 14 210 0.0 0.0 0.00 0.15 0.00 85 1007.8
20260506062007 13 210 0.0 0.0 0.00 0.15 0.00 85 1007.7
20260506061529 13 160 0.0 1.6 0.00 0.15 0.00 84 1007.8
20260506061008 14 152 0.0 1.6 0.00 0.15 0.00 84 1007.8
20260506060508 14 115 0.0 1.6 0.00 0.15 0.00 84 1007.9
20260506051009 13 167 0.0 3.2 0.00 0.15 0.00 84 1008.5
20260506050513 13 274 0.0 0.0 0.00 0.15 0.00 84 1008.5
20260506045007 13 274 0.0 1.6 0.00 0.15 0.00 83 1008.5
20260506044505 13 274 0.0 1.6 0.00 0.15 0.00 83 1008.5
20260506044003 14 274 0.0 1.6 0.00 0.15 0.00 82 1008.6
20260506043505 14 276 0.0 1.6 0.00 0.15 0.00 81 1008.4
20260506043006 14 276 0.0 1.6 0.00 0.15 0.00 80 1008.6
20260506042507 15 276 0.0 0.0 0.00 0.15 0.00 79 1008.6
20260506042006 15 276 0.0 0.0 0.00 0.15 0.00 78 1008.6
20260506041506 15 276 0.0 0.0 0.00 0.15 0.00 78 1008.6
20260506041006 15 276 0.0 0.0 0.00 0.15 0.00 78 1008.5
20260506040507 15 276 0.0 0.0 0.00 0.15 0.00 77 1008.4
20260506040036 15 276 0.0 0.0 0.00 0.15 0.00 77 1008.3
20260506035507 15 276 0.0 0.0 0.00 0.15 0.15 77 1008.3
20260506035008 15 276 0.0 0.0 0.00 0.15 0.15 77 1008.4
20260506034518 15 276 0.0 0.0 0.00 0.15 0.15 78 1008.6
20260506034007 15 276 0.0 0.0 0.00 0.15 0.15 78 1008.6
20260506033503 15 276 0.0 0.0 0.00 0.15 0.15 78 1008.7
20260506033005 15 276 0.0 0.0 0.00 0.15 0.15 78 1008.7
20260506032503 15 276 0.0 0.0 0.00 0.15 0.15 78 1008.6
20260506032004 15 276 0.0 0.0 0.00 0.15 0.15 78 1008.6
20260506031514 15 276 0.0 0.0 0.00 0.15 0.15 78 1008.7
20260506031008 15 276 0.0 0.0 0.00 0.15 0.15 79 1008.7
20260506030506 15 276 0.0 0.0 0.00 0.15 0.15 78 1008.7
20260506030028 15 276 0.0 0.0 0.00 0.15 0.15 76 1008.7
20260506025507 15 276 0.0 1.6 0.00 0.15 0.15 74 1008.7
20260506025007 16 276 0.0 1.6 0.00 0.15 0.15 73 1008.7
20260506024519 16 276 0.0 0.0 0.00 0.15 0.15 72 1008.6
20260506024010 16 276 0.0 0.0 0.00 0.15 0.15 70 1008.7
20260506023511 16 276 0.0 1.6 0.00 0.15 0.15 70 1008.7
20260506023020 17 276 0.0 1.6 0.00 0.15 0.15 69 1008.7
20260506022508 17 276 0.0 1.6 0.00 0.15 0.15 69 1008.7
20260506022010 17 276 0.0 1.6 0.00 0.15 0.15 68 1008.7
20260506021506 17 276 0.0 1.6 0.00 0.15 0.15 68 1008.7
20260506021003 17 276 0.0 1.6 0.00 0.15 0.15 67 1008.7
20260506020511 17 276 0.0 1.6 0.00 0.15 0.15 67 1008.8
20260506020006 17 276 0.0 1.6 0.00 0.15 0.15 66 1008.8
20260506015505 17 276 0.0 1.6 0.00 0.15 0.15 66 1008.8
20260506015004 17 276 0.0 1.6 0.00 0.15 0.15 66 1008.8
20260506014513 17 276 0.0 1.6 0.00 0.15 0.15 66 1008.7
20260506014006 17 276 0.0 0.0 0.00 0.15 0.15 65 1008.6
20260506013509 18 276 0.0 0.0 0.00 0.15 0.15 64 1008.6
20260506013026 18 276 0.0 0.0 0.00 0.15 0.15 64 1008.5
20260506012510 18 276 0.0 3.2 0.00 0.15 0.15 64 1008.5
20260506012011 18 276 0.0 3.2 0.00 0.15 0.15 64 1008.4
20260506011520 18 272 0.0 1.6 0.00 0.15 0.15 64 1008.4
20260506011006 18 271 0.0 1.6 0.00 0.15 0.15 63 1008.3
20260506010510 18 271 0.0 1.6 0.00 0.15 0.15 62 1008.4
20260506010011 18 271 0.0 1.6 0.00 0.15 0.15 62 1008.4
20260506005503 18 271 0.0 1.6 0.00 0.15 0.15 61 1008.2
20260506005006 18 272 0.0 1.6 0.00 0.15 0.15 64 1008.2
20260506004511 18 272 0.0 1.6 0.00 0.15 0.15 64 1008.2
20260506004011 19 271 0.0 1.6 0.00 0.15 0.15 60 1008.1
20260506003507 19 272 0.0 1.6 0.00 0.15 0.15 60 1008.1
20260506003015 19 271 0.0 0.0 0.00 0.15 0.15 60 1008.0
20260506002507 19 271 0.0 0.0 0.00 0.15 0.15 59 1007.9
20260506002008 20 271 0.0 1.6 0.00 0.15 0.15 59 1007.8
20260506001516 20 272 0.0 1.6 0.00 0.15 0.15 58 1007.8
20260506001009 20 272 0.0 0.0 0.00 0.15 0.15 58 1007.8
20260506000508 20 272 0.0 1.6 0.00 0.15 0.15 57 1007.8
20260506000023 20 272 0.0 1.6 0.00 0.15 0.15 57 1007.7
20260505235507 20 271 0.0 1.6 0.00 0.15 0.15 57 1007.6
20260505235012 20 271 0.0 1.6 0.00 0.15 0.15 58 1007.6
20260505234530 20 272 0.0 1.6 0.00 0.15 0.15 57 1007.6
20260505234003 20 271 0.0 1.6 0.00 0.15 0.15 57 1007.6
20260505233504 21 304 0.0 1.6 0.00 0.15 0.15 56 1007.6
20260505233008 21 304 0.0 1.6 0.00 0.15 0.15 57 1007.6
20260505232509 21 330 0.0 1.6 0.00 0.15 0.15 56 1007.5
20260505232010 21 320 0.0 1.6 0.00 0.15 0.15 55 1007.5
20260505231518 21 231 0.0 1.6 0.00 0.15 0.15 56 1007.5
20260505231006 21 231 0.0 1.6 0.00 0.15 0.15 56 1007.5
20260505230507 21 231 0.0 1.6 0.00 0.15 0.15 57 1007.5
20260505230027 21 226 1.6 1.6 0.00 0.15 0.15 55 1007.4
20260505225518 22 157 0.0 0.0 0.00 0.15 0.15 51 1007.3
20260505225009 22 156 0.0 1.6 0.00 0.15 0.15 51 1007.3
20260505224526 22 156 0.0 4.8 0.00 0.15 0.15 51 1007.4
20260505224011 22 209 0.0 4.8 0.00 0.15 0.15 48 1007.4
20260505223512 22 174 0.0 4.8 0.00 0.15 0.15 48 1007.3
20260505223024 22 327 0.0 8.0 0.00 0.15 0.15 48 1007.3
20260505222506 22 287 3.2 9.7 0.00 0.15 0.15 49 1007.4
20260505222008 22 2 3.2 9.7 0.00 0.15 0.15 47 1007.4
20260505221513 23 167 3.2 12.9 0.00 0.15 0.15 46 1007.6
20260505221006 23 241 3.2 12.9 0.00 0.15 0.15 45 1007.5
20260505220507 23 285 3.2 12.9 0.00 0.15 0.15 47 1007.6
20260505220019 23 336 4.8 11.3 0.00 0.15 0.15 45 1007.4
20260505215510 23 78 3.2 11.3 0.00 0.15 0.15 48 1007.3
20260505215008 24 306 1.6 9.7 0.00 0.15 0.15 48 1007.3
20260505214523 24 25 3.2 8.0 0.00 0.15 0.15 45 1007.1
20260505214007 25 359 0.0 4.8 0.00 0.15 0.15 44 1007.1
20260505213508 25 117 1.6 4.8 0.00 0.15 0.15 40 1006.9
20260505213025 25 37 0.0 3.2 0.00 0.15 0.15 44 1006.8
20260505212513 25 70 1.6 3.2 0.00 0.15 0.15 39 1006.6
20260505212013 25 154 0.0 8.0 0.00 0.15 0.15 39 1006.7
20260505211526 25 326 1.6 8.0 0.00 0.15 0.15 42 1006.8
20260505211010 25 110 3.2 8.0 0.00 0.15 0.15 37 1006.8
20260505210508 25 292 3.2 8.0 0.00 0.15 0.15 41 1006.8
20260505210023 25 158 1.6 8.0 0.00 0.15 0.15 39 1006.8
20260505205512 25 41 0.0 6.4 0.00 0.15 0.15 38 1006.7
20260505205011 25 49 0.0 6.4 0.00 0.15 0.15 38 1006.7
20260505204518 25 250 3.2 11.3 0.00 0.15 0.15 38 1006.7
20260505204007 24 131 3.2 11.3 0.00 0.15 0.15 39 1006.7
20260505203502 24 281 4.8 17.7 0.00 0.15 0.15 39 1006.7
20260505203004 24 165 6.4 24.1 0.00 0.15 0.15 39 1006.8
20260505202504 25 340 6.4 24.1 0.00 0.15 0.15 37 1006.7
20260505202002 25 205 3.2 12.9 0.00 0.15 0.15 38 1006.6
20260505201506 25 212 3.2 12.9 0.00 0.15 0.15 39 1006.3
20260505201005 25 219 3.2 6.4 0.00 0.15 0.15 35 1006.2
20260505200504 25 81 0.0 9.7 0.00 0.15 0.15 36 1006.3
20260505200009 25 251 3.2 12.9 0.00 0.15 0.15 37 1006.4
20260505195504 25 90 6.4 14.5 0.00 0.15 0.15 35 1006.4
20260505195002 25 231 6.4 17.7 0.00 0.15 0.15 36 1006.3
20260505194506 25 198 4.8 17.7 0.00 0.15 0.15 36 1006.3
20260505194006 25 259 6.4 16.1 0.00 0.15 0.15 35 1006.3
20260505193504 25 204 8.0 17.7 0.00 0.15 0.15 36 1006.3
20260505193004 26 229 9.7 17.7 0.00 0.15 0.15 35 1006.3
20260505192504 26 194 8.0 12.9 0.00 0.15 0.15 36 1006.3
20260505192003 26 171 8.0 17.7 0.00 0.15 0.15 37 1006.2
20260505191506 26 199 8.0 19.3 0.00 0.15 0.15 38 1006.2
20260505191006 26 226 9.7 19.3 0.00 0.15 0.15 39 1006.2
20260505190503 26 178 9.7 17.7 0.00 0.15 0.15 40 1006.1
20260505190006 26 147 8.0 20.9 0.00 0.15 0.15 38 1006.1
20260505185503 25 196 8.0 20.9 0.00 0.15 0.15 38 1006.1
20260505185006 26 187 12.9 20.9 0.00 0.15 0.15 36 1006.2
20260505184507 26 198 11.3 20.9 0.00 0.15 0.15 37 1006.4
20260505184005 26 209 9.7 16.1 0.00 0.15 0.15 37 1006.4
20260505183504 26 191 9.7 20.9 0.00 0.15 0.15 37 1006.6
20260505183004 26 177 8.0 20.9 0.00 0.15 0.15 39 1006.7
20260505182503 26 198 9.7 19.3 0.00 0.15 0.15 38 1006.6
20260505182004 26 190 11.3 32.2 0.00 0.15 0.15 39 1006.6
20260505181506 26 195 16.1 32.2 0.00 0.15 0.15 37 1006.7
20260505181004 27 198 9.7 17.7 0.00 0.15 0.15 39 1006.8
20260505180502 26 207 9.7 19.3 0.00 0.15 0.15 39 1006.9
20260505180010 26 230 12.9 19.3 0.00 0.15 0.15 40 1006.9
20260505175504 26 188 8.0 22.5 0.00 0.15 0.15 41 1007.1
20260505175004 26 179 9.7 22.5 0.00 0.15 0.15 41 1007.2
20260505174508 26 198 9.7 22.5 0.00 0.15 0.15 42 1007.3
20260505174005 26 181 6.4 12.9 0.00 0.15 0.15 46 1007.5
20260505173505 26 195 4.8 12.9 0.00 0.15 0.15 47 1007.6
20260505173010 25 195 6.4 17.7 0.00 0.15 0.15 44 1007.6
20260505172504 25 195 6.4 17.7 0.00 0.15 0.15 45 1007.5
20260505172007 25 130 9.7 17.7 0.00 0.15 0.15 47 1007.4
20260505171518 25 209 8.0 12.9 0.00 0.15 0.15 45 1007.5
20260505171004 25 180 6.4 12.9 0.00 0.15 0.15 47 1007.5
20260505170505 25 196 8.0 12.9 0.00 0.15 0.15 44 1007.5
20260505170014 25 227 6.4 11.3 0.00 0.15 0.15 48 1007.6
20260505165504 25 148 3.2 12.9 0.00 0.15 0.15 45 1007.6
20260505165006 25 224 6.4 17.7 0.00 0.15 0.15 46 1007.6
20260505164509 25 169 6.4 20.9 0.00 0.15 0.15 45 1007.6
20260505164004 25 225 11.3 20.9 0.00 0.15 0.15 44 1007.7
20260505163504 25 207 8.0 16.1 0.00 0.15 0.15 46 1007.7
20260505163010 25 214 3.2 14.5 0.00 0.15 0.15 46 1007.8
20260505162503 25 221 4.8 14.5 0.00 0.15 0.15 46 1008.0
20260505162005 25 224 6.4 19.3 0.00 0.15 0.15 47 1008.0
20260505161510 25 180 6.4 19.3 0.00 0.15 0.15 46 1008.1
20260505161005 25 257 6.4 14.5 0.00 0.15 0.15 48 1008.2
20260505160507 25 184 6.4 14.5 0.00 0.15 0.15 52 1008.3
20260505153007 23 177 8.0 14.5 0.00 0.15 0.15 52 1008.7
20260505152504 23 155 6.4 11.3 0.00 0.15 0.15 55 1008.6
20260505152008 23 149 6.4 14.5 0.00 0.15 0.15 53 1008.8
20260505151510 23 159 9.7 14.5 0.00 0.15 0.15 51 1008.7
20260505151009 23 193 8.0 11.3 0.00 0.15 0.15 54 1008.7
20260505150507 23 135 6.4 12.9 0.00 0.15 0.15 57 1008.7